188P/LINEAR-Mueller (1998)

Japanese version
Home page
Updated on July 1, 2007

---------------------------------------------------------------------

* Profile

Designation 188P/1998 S1
Discovery Date September 26 and October 14, 1998
Magnitude 18.1 mag, 17 mag
Discoverer Lincoln Laboratory Near-Earth Asteroid Research project, Jean Mueller (Palomar Outer Solar System Ecliptic Survey)

* Pictures

* Orbital Elements

                    Epoch = 1998 Nov.  3.0 TT
     T = 1998 Nov.  2.7434 TT         Peri. =  26.3621
     e = 0.416704                     Node  = 359.1837  2000.0
     q = 2.548366 AU                  Incl. =  10.5598
       a =  4.368908 AU    n = 0.1079306    P =   9.132 years

* Finding Charts

* Magnitudes Graph

        m1 = 12.0 + 5 log d + 6.3 log r

---------------------------------------------------------------------

The orbital elements are printed on IAUC 8853.
The charts are made with StellaNavigator Ver.2.0 for Windows (AstroArts / ASCII).
The magnitudes graphs are made with Comet for Windows.

---------------------------------------------------------------------

Copyright(C) Seiichi Yoshida (comet@aerith.net). All rights reserved.